カタログに戻る

COSMOS 2165

運用中軍事PO
NORAD 21779·PAYLOAD·🇷🇺 Russia

打ち上げ Nov 12, 1991 から Plesetsk Cosmodrome

Loading…

次のパス (今後24時間)

TLE

最新Source: Space-Track

元期: Sep 14, 2026, 12:01 UTC

1 21779U 91077A   26257.50088315  .00000035  00000-0  13203-3 0  9992
2 21779  82.6106 175.1674 0009560 206.4466 327.8403 12.64923084608280

AllMySatでCOSMOS 2165をリアルタイム追跡

Download on the App Store